Regional Weather Roundup
Issued by NWS

Home | Current Version | Previous Version | Graphics & Text | Print | Product List | Glossary On
Versions: 1 2 3 4 5 6 7 8 9 10 11 12 13 14 15 16 17 18 19 20 21 22 23 24 25 26 27 28 29 30 31 32 33 34 35 36 37 38 39 40 41 42 43 44 45 46 47 48 49 50
000
ASUS45 KBOU 250007
RWRCO

WEATHER ROUNDUP FOR COLORADO
NATIONAL WEATHER SERVICE DENVER/BOULDER CO
500 PM MST SAT JAN 24 2015

NOTE: "FAIR" INDICATES FEW OR NO CLOUDS BELOW 12000 FEET WITH NO
SIGNIFICANT WEATHER AND/OR OBSTRUCTIONS TO VISIBILITY.

COZ001>005-013-030-031-250100-
...NORTHWEST COLORADO...

CITY           SKY/WX    TMP DP  RH WIND       PRES   REMARKS
CRAIG          CLOUDY    28  18  66 SW3       30.31R
HAYDEN         CLOUDY    23  12  63 CALM      30.30R
MEEKER         CLOUDY    24  16  71 CALM      30.31R
MOUNT WERNER   NOT AVBL
STEAMBOAT SPGS CLOUDY    21  12  69 CALM      30.31R
WALDEN         CLOUDY    32  19  59 SW13      30.22R WCI  22
$$

COZ006>008-011-250100-
...WEST CENTRAL VALLEYS...

CITY           SKY/WX    TMP DP  RH WIND       PRES   REMARKS
GRAND JUNCTION CLOUDY    38  14  37 CALM      30.33S
MONTROSE       MOCLDY    38  10  31 CALM      30.35R
EAGLE          CLOUDY    28  16  59 CALM      30.34S
RIFLE          CLOUDY    34  14  43 S6        30.33F WCI  29
DELTA          NOT AVBL
NUCLA          MOCLDY    41  12  30 NW5       30.35R
$$

COZ017>023-064>068-250100-
...SOUTHWEST COLORADO...

CITY           SKY/WX    TMP DP  RH WIND       PRES   REMARKS
DURANGO        MOCLDY    37  19  48 SW3       30.25R
CORTEZ         CLEAR     41  16  36 W6        30.27R
PAGOSA SPRINGS MOCLDY    32  19  58 CALM      30.26R
TELLURIDE      MOCLDY   N/A N/A N/A W15G21    30.33R
WOLF CREEK PAS NOT AVBL
$$

COZ009-010-012-014-032>034-037-058>063-250100-
...CENTRAL COLORADO...

CITY           SKY/WX    TMP DP  RH WIND       PRES   REMARKS
ASPEN          CLOUDY    30  15  53 CALM      30.29R
BUENA VISTA    CLOUDY    40  16  37 NW28G39   30.15R
COPPER MTN     CLOUDY    25  16  68 W23G31    30.28S WCI  10
BERTHOUD PASS  CLOUDY    16  10  79 W39G48    30.21S HAZE    WCI  -7
COTTONWOOD PAS CLOUDY    37  18  44 NW16G43   30.16R
GUNNISON       MOCLDY    10  -8  44 CALM      30.37R
KREMMLING      CLOUDY    18   7  62 CALM      30.32F
LEADVILLE      CLOUDY    28  12  51 NW12      30.27R WCI  18
MONARCH PASS   MOCLDY    18   9  68 W46G54    30.33R HAZE    WCI  -5
SALIDA         CLOUDY    44  11  26 SW12G18   30.23R
SUNLIGHT       CLOUDY    27  14  59 CALM      30.31F
WILKERSON PASS CLOUDY    28  14  54 NW14G26   30.20F WCI  17
$$

COZ069>075-250100-
...SAN LUIS VALLEY/SANGRE DE CRISTO MOUNTAINS...

CITY           SKY/WX    TMP DP  RH WIND       PRES   REMARKS
ALAMOSA        MOCLDY    30  15  53 N7        30.22R WCI  23
LA VETA PASS   NOT AVBL
SAGUACHE       MOCLDY    21  14  73 E5        30.23S WCI  15
$$

COZ035-036-038>040-250100-
...NORTHERN COLORADO FRONT RANGE...

CITY           SKY/WX    TMP DP  RH WIND       PRES   REMARKS
DENVER INTL AP CLOUDY    47  21  35 W17G23    30.00S
DMNS CITY PARK   N/A     50  19  29 W9G17     30.01R
AURORA         MOCLDY    47  22  37 W9        30.02S
FRONT RANGE AP NOT AVBL
ERIE MUNI ARPT CLOUDY    51  18  27 W15G22    30.00S
BOULDER MUN AP CLOUDY    50  19  29 W16G22    30.01R
CENTENNIAL     CLOUDY    48  21  34 NW17      30.02S
BROOMFIELD     MOCLDY    48  18  29 W30G44    30.02S
FORT COLLINS   CLOUDY    46  21  36 N6        30.00R
LONGMONT       CLOUDY    51  19  28 W13       30.02R
$$

COZ041-046-047-076>085-087-088-250100-
...PIKES PEAK/PALMER DIVIDE AND SOUTHERN FOOTHILLS...

CITY           SKY/WX    TMP DP  RH WIND       PRES   REMARKS
COLO. SPRINGS  CLOUDY    46  20  35 N12       30.03R
A. F. ACADEMY  CLOUDY    41  22  47 N10       30.03R
ELLICOTT       CLOUDY   N/A N/A N/A NE9       30.02R
FALCON         CLOUDY    44  19  36 NW14G22   30.04S
FORT CARSON    CLOUDY    45  20  37 S2        30.01R
LIMON          CLOUDY    43  22  43 NW14      29.98F
MONUMENT HILL  CLOUDY    36  23  60 W9        30.04F
TRINIDAD       CLOUDY    45  23  42 NW13      30.00R
$$

COZ042>045-048>051-090-091-250100-
...NORTHEAST COLORADO...

CITY           SKY/WX    TMP DP  RH WIND       PRES   REMARKS
GREELEY ARPT   CLOUDY    45  27  49 N14       29.97R
AKRON          CLOUDY    44  26  49 NW18      29.96R
BURLINGTON     CLOUDY    42  28  57 NW9       29.94F
WRAY           MOCLDY    45  30  55 W9        29.92S
STERLING       CLOUDY    48  34  57 NW26G39   29.94R
HOLYOKE        MOCLDY    50  28  43 NW18G25   29.92R
FORT MORGAN    CLOUDY    47  27  46 NW29G38   30.00R
$$

COZ086-089-092>099-250100-
...SOUTHEAST COLORADO...

CITY           SKY/WX    TMP DP  RH WIND       PRES   REMARKS
PUEBLO         CLOUDY    49  23  36 NW13      29.97R
LA JUNTA       CLOUDY    43  29  57 NW5       29.97R
LAMAR          CLOUDY    43  32  65 N3        29.95R
SPRINGFIELD      N/A     43  27  53 NW6       29.95R
$$



USA.gov is the U.S. government's official web portal to all federal, state and local government web resources and services.